{"data":{"norad_id":54203,"epoch":"2026-09-20T06:57:15.102432Z","epoch_age_seconds":107453,"freshness":"FRESH","line1":"1 54203U 22141AY  26263.28975813  .00001658  00000+0  58403-4 0  9999","line2":"2 54203  53.1604 188.8004 0001180  81.7557 278.3580 15.35416254215532","mean_motion":15.35416254,"eccentricity":0.000118,"inclination_deg":53.1604,"raan_deg":188.8004,"arg_perigee_deg":81.7557,"mean_anomaly_deg":278.358,"bstar":5.8403e-5,"rev_number":21553,"period_min":93.78564257403,"perigee_km":458.87752235911,"apogee_km":460.49124820604,"semimajor_km":6837.8213852826,"source":"CELESTRAK","updated_at":"2026-09-21T09:00:33.117439Z"}}